This is the latest recevied weather packets stored in our database for station/object DO6DD-13. If no packets are shown the sender has not sent any weather packets the latest 10 day(s).
| Time | Temp. | Humidity | Pressure | Rain* | Wind** | Luminosity | Snow |
|---|---|---|---|---|---|---|---|
| 1777377623 | 16.67° C | 37% | 1025 hPa | - | - | 768 W/m² | - |
| 1777377023 | 16.11° C | 38% | 1025.1 hPa | - | - | 770 W/m² | - |
| 1777376422 | 16.11° C | 40% | 1025.1 hPa | - | - | 770 W/m² | - |
| 1777375822 | 15.56° C | 43% | 1025.1 hPa | - | - | 768 W/m² | - |
| 1777375221 | 15.56° C | 44% | 1025.1 hPa | - | - | 768 W/m² | - |
| 1777374621 | 15.56° C | 45% | 1025.1 hPa | - | - | 768 W/m² | - |
| 1777374020 | 15° C | 47% | 1025.1 hPa | - | - | 734 W/m² | - |
| 1777373420 | 15° C | 49% | 1025.1 hPa | - | - | 368 W/m² | - |
| 1777372819 | 14.44° C | 49% | 1025.2 hPa | - | - | 202 W/m² | - |
| 1777372219 | 15° C | 49% | 1025.1 hPa | - | - | 116 W/m² | - |
| 1777371618 | 14.44° C | 50% | 1025.1 hPa | - | - | 170 W/m² | - |
| 1777371018 | 13.89° C | 51% | 1025.1 hPa | - | - | 116 W/m² | - |
| 1777370417 | 13.89° C | 52% | 1025 hPa | - | - | 90 W/m² | - |
| 1777369817 | 13.33° C | 52% | 1025.1 hPa | - | - | 112 W/m² | - |
| 1777369216 | 13.89° C | 52% | 1025 hPa | - | - | 98 W/m² | - |
| 1777368616 | 13.33° C | 53% | 1025.1 hPa | - | - | 94 W/m² | - |
| 1777368016 | 12.78° C | 54% | 1025.1 hPa | - | - | 118 W/m² | - |
| 1777367425 | 12.78° C | 55% | 1025.1 hPa | - | - | 86 W/m² | - |
| 1777366824 | 12.22° C | 56% | 1025 hPa | - | - | 86 W/m² | - |
| 1777366224 | 11.67° C | 57% | 1025.1 hPa | - | - | 90 W/m² | - |
| 1777365623 | 11.67° C | 58% | 1025.1 hPa | - | - | 92 W/m² | - |
| 1777365023 | 11.11° C | 59% | 1025 hPa | - | - | 80 W/m² | - |
| 1777364422 | 11.11° C | 59% | 1025 hPa | - | - | 88 W/m² | - |
| 1777363822 | 11.11° C | 59% | 1025 hPa | - | - | 124 W/m² | - |
| 1777363222 | 11.11° C | 60% | 1025.1 hPa | - | - | 162 W/m² | - |
* Rain since midnight (hover to see other rain measurements)
** Current wind speed in m/s (hover to see current wind gust speed)